Meteo Giornale » Osservazioni meteo Italia » Venezia-Tessera

ore: 02:20 - Osservazioni Meteo Venezia-Tessera
Lat. 45° 30' N Lon. 12° 20' E Alt. 2 metri s.l.m.

sereno Europe/Rome

20 °C

Sereno

Temp. 24 Ore

17 °C

26 °C

Nord

5.5 Km/h

Dew point 16 °C

Umidità 77 %

Visibilità  10 Km

Il sole sorge alle ore 06:21

Il sole tramonta alle ore 20:04

Data e Ora Cielo e Fenomeni T °C DP °C Um. % Pres. hPa Vis. km Vento km/h
Oggi h: 02:20 sereno Sereno 20 16 77 1017 10 N 5.5
Oggi h: 01:50 sereno Sereno 20 17 82 1017 10 O/NO 9.3
Oggi h: 01:20 sereno Sereno 20 16 77 1017 10 NO 9.3
Oggi h: 00:50 sereno Sereno 20 17 82 1018 10 O/NO 9.3
Oggi h: 00:20 sereno Sereno 21 16 73 1018 10 O/NO 11.1
Ieri h: 23:50 sereno Sereno 21 16 73 1018 10 NO 11.1
Ieri h: 23:20 sereno Sereno 21 17 77 1018 10 O/NO 9.3
Ieri h: 22:50 sereno Sereno 22 18 78 1017 10 S 7.4
Ieri h: 22:20 sereno Sereno 22 15 64 1017 10 S 7.4
Ieri h: 21:50 sereno Sereno 22 16 68 1017 10 S 9.3
Ieri h: 21:20 sereno Sereno 23 16 64 1017 10 S 9.3
Ieri h: 20:50 sereno Sereno 23 16 64 1017 10 S/SE 9.3
Ieri h: 20:20 sereno Sereno 23 16 64 1016 10 S/SE 9.3
Ieri h: 19:50 sereno Sereno 24 15 57 1016 10 SE 13
Ieri h: 19:20 sereno Sereno 25 15 53 1016 10 SE 13
Ieri h: 18:50 sereno Sereno 25 15 53 1016 10 S/SE 13
Ieri h: 18:20 sereno Sereno 25 15 53 1016 10 SE 14.8
Ieri h: 17:20 sereno Sereno 26 15 50 1017 10 SE 14.8
Ieri h: 16:50 sereno Sereno 25 15 53 1017 10 SE 14.8
Ieri h: 16:20 sereno Sereno 26 14 47 1017 10 SE 14.8
Ieri h: 15:50 sereno Sereno 26 14 47 1017 10 SE 14.8
Ieri h: 15:20 sereno Sereno 26 14 47 1017 10 SE 14.8
Ieri h: 14:50 sereno Sereno 25 14 50 1017 10 SE 16.7
Ieri h: 14:20 sereno Sereno 26 14 47 1017 10 SE 16.7
Ieri h: 13:50 sereno Sereno 25 14 50 1018 10 SE 14.8
Ieri h: 13:20 sereno Sereno 25 14 50 1018 10 SE 13
Ieri h: 12:50 sereno Sereno 25 14 50 1018 10 SE 14.8
Ieri h: 12:20 sereno Sereno 25 14 50 1018 10 SE 13
Ieri h: 11:50 sereno Sereno 24 14 53 1018 10 E 11.1
Ieri h: 11:20 sereno Sereno 24 14 53 1018 10 E 11.1
Ieri h: 10:50 sereno Sereno 23 14 56 1018 10 E/NE 11.1
Ieri h: 10:20 sereno Sereno 23 13 53 1018 10 E/NE 9.3
Ieri h: 09:50 sereno Sereno 22 14 60 1018 10 N/NE 9.3
Ieri h: 09:20 sereno Sereno 21 14 64 1018 10 NE 11.1
Ieri h: 08:50 sereno Sereno 20 13 64 1018 10 NE 9.3
Ieri h: 08:20 sereno Sereno 19 13 68 1017 10 N/NE 13
Ieri h: 07:50 sereno Sereno 18 14 77 1017 10 N 11.1
Ieri h: 07:20 sereno Sereno 18 13 72 1017 10 N 11.1
Ieri h: 06:20 sereno Sereno 17 14 82 1017 10 N 7.4
Ieri h: 05:50 sereno Sereno 17 14 82 1016 10 N/NE 9.3
Ieri h: 05:20 sereno Sereno 18 13 72 1016 10 N 9.3
Ieri h: 04:50 sereno Sereno 17 14 82 1016 10 N 9.3
Ieri h: 04:20 sereno Sereno 18 14 77 1016 10 N 1.8
Ieri h: 03:50 sereno Sereno 18 15 82 1016 10 N 1.8